Lamar, CO

8:10 AM MST on February 26, 2017 (GMT -0700)
Lamar Municipal

Weather History for KLAA - October, 2012

Change the Weather History Date:

Saturday, October 6, 2012

  Actual Average Record
Temperature  
Mean Temperature 39 °F 57 °F  
Max Temperature 42 °F 75 °F 95 °F (1921)
Min Temperature 36 °F 40 °F 24 °F (1932)
Degree Days  
Heating Degree Days 26 8  
Month to date heating degree days 77 44  
Since 1 July heating degree days 126 127  
Cooling Degree Days 0 1  
Month to date cooling degree days 1 6  
Year to date cooling degree days 1626 1118  
Moisture  
Dew Point 36 °F    
Average Humidity 93    
Maximum Humidity 100    
Minimum Humidity 85    
Precipitation  
Precipitation 0.04 in 0.02 in 1.26 in (1954)
Month to date precipitation 0.04  
Year to date precipitation 5.54  
Sea Level Pressure  
Sea Level Pressure 30.27 in    
Wind  
Wind Speed 9 mph (ESE)    
Max Wind Speed 13 mph    
Max Gust Speed 15 mph    
Visibility 6 miles    
Events      
T = Trace of Precipitation, MM = Missing Value Source: NWS Daily Summary

Daily Weather History Graph

Daily Weather History Graph

Search for Another Location

Airport or City:

Trip Planner

Search our weather history database for the weather conditions in past years. The results will help you decide how hot, cold, wet, or windy it might be!

Date:

Astronomy

Oct. 06, 2012 Rise Set
Actual Time 6:51 AM MDT 6:25 PM MDT
Civil Twilight 6:25 AM MDT 6:51 PM MDT
Nautical Twilight 5:54 AM MDT 7:22 PM MDT
Astronomical Twilight 5:23 AM MDT 7:52 PM MDT
Moon 10:47 PM MDT (10/6) 12:43 PM MDT (10/6)
Length of Visible Light 12h 26m
Length of Day
11h 33m
Waning Gibbous, 65% of the Moon is Illuminated
Oct 6
Waning Gibbous
Oct 8
Last Quarter
Oct 15
New
Oct 21
First Quarter
Oct 29
Full

Hourly Weather History & Observations

Time (MDT) Temp. Windchill Dew Point Humidity Pressure Visibility Wind Dir Wind Speed Gust Speed Precip Events Conditions
12:14 AM 37.4 °F 30.3 °F 33.8 °F 87% 30.29 in 6.0 mi East 10.4 mph - N/A   Overcast
12:53 AM 37.0 °F 31.0 °F 34.0 °F 89% 30.29 in 9.0 mi East 8.1 mph - N/A   Overcast
1:13 AM 37.4 °F 31.4 °F 35.6 °F 93% 30.28 in 7.0 mi East 8.1 mph - N/A   Overcast
1:20 AM 37.4 °F 32.8 °F 35.6 °F 93% 30.28 in 7.0 mi East 5.8 mph - N/A   Overcast
1:28 AM 37.4 °F 31.4 °F 35.6 °F 93% 30.28 in 6.0 mi East 8.1 mph - N/A   Overcast
1:53 AM 37.0 °F 31.0 °F 34.0 °F 89% 30.28 in 4.0 mi East 8.1 mph - N/A   Overcast
2:40 AM 35.6 °F 28.6 °F 35.6 °F 100% 30.27 in 3.0 mi East 9.2 mph - N/A   Overcast
2:53 AM 36.0 °F 30.3 °F 35.1 °F 97% 30.27 in 3.0 mi ESE 6.9 mph - N/A   Overcast
3:11 AM 35.6 °F 28.0 °F 35.6 °F 100% 30.26 in 4.0 mi ESE 10.4 mph - N/A   Overcast
3:27 AM 35.6 °F 28.6 °F 35.6 °F 100% 30.26 in 4.0 mi East 9.2 mph - N/A   Overcast
3:53 AM 36.0 °F 29.0 °F 35.1 °F 97% 30.26 in 3.0 mi ESE 9.2 mph - N/A   Overcast
4:53 AM 36.0 °F 29.6 °F 35.1 °F 97% 30.26 in 3.0 mi ESE 8.1 mph - 0.01 in   Overcast
5:29 AM 35.6 °F 29.9 °F 35.6 °F 100% 30.26 in 3.0 mi East 6.9 mph - N/A   Overcast
5:53 AM 36.0 °F 28.5 °F 35.1 °F 97% 30.26 in 3.0 mi ESE 10.4 mph - 0.00 in   Overcast
6:53 AM 36.0 °F 29.6 °F 35.1 °F 97% 30.26 in 5.0 mi ESE 8.1 mph - 0.01 in   Overcast
7:29 AM 35.6 °F 28.6 °F 35.6 °F 100% 30.25 in 2.0 mi East 9.2 mph - 0.00 in   Overcast
7:33 AM 35.6 °F 29.2 °F 35.6 °F 100% 30.25 in 1.8 mi ESE 8.1 mph - 0.00 in   Overcast
7:44 AM 35.6 °F 29.2 °F 35.6 °F 100% 30.26 in 1.2 mi ESE 8.1 mph - 0.00 in   Overcast
7:49 AM 35.6 °F 28.0 °F 35.6 °F 100% 30.26 in 1.5 mi ESE 10.4 mph - 0.00 in   Overcast
8:20 AM 37.4 °F 30.3 °F 35.6 °F 93% 30.26 in 1.8 mi ESE 10.4 mph - 0.01 in   Overcast
8:38 AM 37.4 °F 30.3 °F 35.6 °F 93% 30.26 in 2.5 mi ESE 10.4 mph - 0.01 in   Overcast
8:53 AM 37.0 °F 29.8 °F 36.0 °F 96% 30.28 in 2.5 mi ESE 10.4 mph - 0.01 in   Overcast
9:18 AM 37.4 °F 30.8 °F 35.6 °F 93% 30.28 in 3.0 mi East 9.2 mph - N/A   Overcast
9:53 AM 37.0 °F 31.0 °F 36.0 °F 96% 30.31 in 6.0 mi ESE 8.1 mph - N/A   Overcast
10:20 AM 37.4 °F 32.1 °F 35.6 °F 93% 30.28 in 2.0 mi East 6.9 mph - N/A   Overcast
10:34 AM 37.4 °F 30.8 °F 35.6 °F 93% 30.28 in 1.8 mi ESE 9.2 mph - 0.01 in   Overcast
10:44 AM 37.4 °F 32.1 °F 35.6 °F 93% 30.28 in 2.5 mi ESE 6.9 mph - 0.01 in   Overcast
10:53 AM 37.0 °F 29.8 °F 36.0 °F 96% 30.29 in 4.0 mi SE 10.4 mph - 0.01 in   Overcast
11:00 AM 37.4 °F 30.8 °F 35.6 °F 93% 30.27 in 6.0 mi SE 9.2 mph - N/A   Overcast
11:43 AM 39.2 °F 32.0 °F 37.4 °F 93% 30.27 in 5.0 mi SE 11.5 mph - N/A   Overcast
11:53 AM 39.0 °F 33.4 °F 37.0 °F 93% 30.28 in 6.0 mi SSE 8.1 mph - N/A   Overcast
12:02 PM 39.2 °F 32.5 °F 37.4 °F 93% 30.27 in 10.0 mi SSE 10.4 mph - N/A   Overcast
12:18 PM 39.2 °F 33.0 °F 37.4 °F 93% 30.27 in 10.0 mi SE 9.2 mph - N/A   Overcast
12:28 PM 39.2 °F 34.2 °F 37.4 °F 93% 30.27 in 10.0 mi SSE 6.9 mph - N/A   Overcast
12:50 PM 41.0 °F 34.7 °F 37.4 °F 87% 30.25 in 10.0 mi SE 10.4 mph - N/A   Overcast
12:53 PM 41.0 °F 35.2 °F 37.0 °F 86% 30.27 in 10.0 mi SSE 9.2 mph - N/A   Overcast
1:53 PM 39.9 °F 35.1 °F 36.0 °F 86% 30.26 in 10.0 mi East 6.9 mph - N/A   Overcast
2:53 PM 39.9 °F 35.1 °F 37.0 °F 89% 30.27 in 5.0 mi ENE 6.9 mph - N/A   Overcast
3:26 PM 39.2 °F 33.0 °F 37.4 °F 93% 30.25 in 5.0 mi ESE 9.2 mph - N/A   Overcast
3:53 PM 39.9 °F 34.5 °F 37.9 °F 93% 30.26 in 10.0 mi East 8.1 mph - N/A   Overcast
4:27 PM 39.2 °F 33.0 °F 37.4 °F 93% 30.25 in 10.0 mi East 9.2 mph - N/A   Overcast
5:17 PM 41.0 °F 35.2 °F 37.4 °F 87% 30.24 in 10.0 mi ESE 9.2 mph - N/A   Mostly Cloudy
5:53 PM 39.9 °F 33.9 °F 37.0 °F 89% 30.27 in 10.0 mi ESE 9.2 mph - N/A   Mostly Cloudy
6:53 PM 39.9 °F 35.1 °F 37.0 °F 89% 30.29 in 10.0 mi SSE 6.9 mph - N/A   Overcast
7:49 PM 39.2 °F 33.6 °F 35.6 °F 87% 30.29 in 10.0 mi SE 8.1 mph - N/A   Overcast
7:53 PM 39.0 °F 34.0 °F 36.0 °F 89% 30.31 in 10.0 mi SE 6.9 mph - N/A   Overcast
8:53 PM 39.0 °F 32.8 °F 36.0 °F 89% 30.31 in 10.0 mi SE 9.2 mph - N/A   Overcast
9:53 PM 39.0 °F 32.8 °F 37.0 °F 93% 30.31 in 10.0 mi SE 9.2 mph - N/A   Overcast
10:30 PM 39.2 °F 33.6 °F 35.6 °F 87% 30.29 in 10.0 mi SE 8.1 mph - N/A   Overcast
10:53 PM 39.0 °F 32.3 °F 36.0 °F 89% 30.31 in 10.0 mi SE 10.4 mph - N/A   Overcast
11:45 PM 39.2 °F 34.2 °F 35.6 °F 87% 30.28 in 10.0 mi SE 6.9 mph - N/A   Overcast
11:53 PM 39.0 °F 33.4 °F 36.0 °F 89% 30.30 in 10.0 mi SE 8.1 mph - N/A   Overcast